Погода в Казахдарье

Узбекистан     43°25′17″N   59°39′04″E
темп.,
°C
ветер,
м/с
пор.,
м/с
влажн.,
%
обл.,
%
осадки,
мм/ч
давл.,
гПа
погр.,
м
8 августа, пн
пн823:00+25с58630 0.0 1008136
02:00+25ссв59650 0.0 1008141
05:00+24ссв57730 0.0 1008105
08:00+25ссв566611 0.0 1010115
11:00+27ссв674845 0.0 1010207
14:00+28ссв794236 0.0 1010365
17:00+28с7845100 0.0 1010273
20:00+26с6756100 0.0 1010136
9 августа, вт
вт923:00+25с5764100 0.0 101097
02:00+25с5667100 0.0 100976
05:00+24с477099 0.0 1009103
08:00+25с676582 0.0 1010159
11:00+27ссв5647100 0.0 1011277
14:00+27ссв7848100 0.0 1011321
17:00+26ссв81050100 0.0 1011289
20:00+25ссв795699 0.0 1012243
10 августа, ср
ср1023:00+24ссв596199 0.0 1011182
02:00+24ссв696719 0.0 1011186
05:00+24ссв7107228 0.0 1012251
08:00+24св68643 0.0 1013225
11:00+26ссв68460 0.0 1014418
14:00+27ссв910410 0.0 1013487
17:00+26ссв89450 0.0 1013363
20:00+25с68530 0.0 1013171
11 августа, чт
чт1123:00+24ссв610620 0.0 1013199
02:00+24ссв58630 0.0 1013107
05:00+24ссв58730 0.0 1013147
08:00+25ссв68620 0.0 1015202
11:00+27ссв67470 0.0 1015391
14:00+28ссв88410 0.0 1015432
17:00+27ссв79440 0.0 1014348
20:00+25ссв79570 0.0 1015199
12 августа, пт
пт1223:00+25ссв711600 0.0 1014186
02:00+25ссв69670 0.0 1014132
05:00+24св58750 0.0 1015135
08:00+25св68650 0.0 1016167
11:00+27ссв67470 0.0 1016284
14:00+29ссв89400 0.0 1015365
17:00+28ссв910430 0.0 1014269
20:00+26с68555 0.0 1013105